Date String (YYYY-MM-DD hh:mm:ss) UTC,Instrument flags,Ambient pressure (hPa),Sample flow (lpm),Bypass flow (lpm),Sample temperature (°C),Ambient temperature (°C),ASC tube jacket temperature (°C),LED temperature (°C),Box temperature (°C),Sample RH (%),Span deviation,Mass concentration (μg/m³),Mass concentration (μg/m³),Mass concentration (μg/m³)
DateTimeUTC,F1_M11,P_M11,Q1_M11,Q2_M11,T1_M11,T2_M11,T3_M11,T4_M11,T5_M11,U1_M11,ZSPAN_M11,X0_M11,X2_M11,X1_M11
2022-03-06 02:00:00,,0822.8,5.01,0.00,22.4,22.0,00.0,31.1,24.2,13.5,0000.0,0009.48,0005.65,0005.42
2022-03-06 02:01:00,,0822.8,4.99,0.00,22.4,22.0,00.0,31.2,24.2,13.4,0000.0,0009.48,0005.62,0005.40
2022-03-06 02:02:00,,0822.8,4.99,0.00,22.3,21.9,00.0,31.2,24.1,13.3,0000.0,0009.16,0005.59,0005.39
2022-03-06 02:03:00,,0822.8,5.00,0.00,22.3,21.9,00.0,31.2,24.1,13.3,0000.0,0008.65,0005.57,0005.37
2022-03-06 02:04:00,,0822.8,5.02,0.00,22.3,21.8,00.0,31.2,24.1,13.3,0000.0,0008.55,0005.58,0005.37
2022-03-06 02:05:00,,0822.9,5.00,0.00,22.3,21.8,00.0,31.2,24.1,13.3,0000.0,0008.55,0005.57,0005.36
2022-03-06 02:06:00,,0823.0,4.99,0.00,22.3,21.8,00.0,31.2,24.1,13.3,0000.0,0008.55,0005.57,0005.35
2022-03-06 02:07:00,,0822.9,5.00,0.00,22.3,21.8,00.0,31.2,24.1,13.4,0000.0,0008.54,0005.57,0005.36
2022-03-06 02:08:00,,0823.0,5.00,0.00,22.3,21.7,00.0,31.2,24.1,13.4,0000.0,0008.35,0005.58,0005.35
2022-03-06 02:09:00,,0823.0,5.00,0.00,22.3,21.7,00.0,31.2,24.1,13.3,0000.0,0008.56,0005.57,0005.34
2022-03-06 02:10:00,,0823.0,5.02,0.00,22.3,21.7,00.0,31.2,24.1,13.3,0000.0,0008.70,0005.56,0005.32
2022-03-06 02:11:00,,0823.0,4.99,0.00,22.3,21.7,00.0,31.2,24.0,13.5,0000.0,0008.57,0005.59,0005.34
2022-03-06 02:12:00,,0823.1,5.02,0.00,22.3,21.6,00.0,31.2,24.0,13.5,0000.0,0008.49,0005.62,0005.35
2022-03-06 02:13:00,,0823.1,4.99,0.00,22.3,21.6,00.0,31.2,24.1,13.5,0000.0,0008.56,0005.64,0005.36
2022-03-06 02:14:00,,0823.0,5.00,0.00,22.3,21.6,00.0,31.2,24.0,13.5,0000.0,0008.56,0005.64,0005.36
2022-03-06 02:15:00,,0823.0,5.02,0.00,22.3,21.6,00.0,31.2,24.0,13.6,0000.0,0008.55,0005.65,0005.39
2022-03-06 02:16:00,,0823.0,4.99,0.00,22.3,21.6,00.0,31.2,24.1,13.5,0000.0,0008.55,0005.66,0005.39
2022-03-06 02:17:00,,0823.0,5.00,0.00,22.3,21.6,00.0,31.2,24.1,13.5,-000.1,0008.47,0005.62,0005.38
2022-03-06 02:18:00,,0823.0,5.00,0.00,22.3,21.6,00.0,31.2,24.1,13.6,-000.1,0008.49,0005.60,0005.37
2022-03-06 02:19:00,,0823.0,5.00,0.00,22.3,21.6,00.0,31.2,24.1,13.7,-000.2,0009.17,0005.64,0005.41
2022-03-06 02:20:00,,0822.9,5.00,0.00,22.3,21.6,00.0,31.2,24.1,13.6,-000.6,0008.86,0005.65,0005.43
2022-03-06 02:21:00,,0823.0,4.99,0.00,22.3,21.6,00.0,31.2,24.1,13.6,-000.8,0008.71,0005.67,0005.43
2022-03-06 02:22:00,,0822.9,4.99,0.00,22.3,21.6,00.0,31.2,24.1,13.6,-000.6,0008.79,0005.68,0005.43
2022-03-06 02:23:00,,0822.9,5.02,0.00,22.3,21.6,00.0,31.2,24.1,13.5,-000.4,0008.69,0005.64,0005.41
2022-03-06 02:24:00,,0822.9,4.99,0.00,22.3,21.6,00.0,31.2,24.1,13.4,-000.0,0008.59,0005.60,0005.40
2022-03-06 02:25:00,,0822.9,4.99,0.00,22.3,21.6,00.0,31.2,24.1,13.4,0000.1,0008.58,0005.59,0005.38
2022-03-06 02:26:00,,0822.9,5.01,0.00,22.3,21.6,00.0,31.2,24.1,13.3,0000.2,0008.56,0005.57,0005.35
2022-03-06 02:27:00,,0822.9,5.00,0.00,22.3,21.6,00.0,31.2,24.1,13.3,0000.2,0008.50,0005.53,0005.32
2022-03-06 02:28:00,,0822.9,5.00,0.00,22.3,21.6,00.0,31.2,24.1,13.4,0000.7,0008.54,0005.55,0005.33
2022-03-06 02:29:00,,0823.0,5.02,0.00,22.3,21.6,00.0,31.2,24.1,13.2,0000.8,0008.63,0005.54,0005.30
2022-03-06 02:30:00,,0823.0,4.99,0.00,22.3,21.6,00.0,31.2,24.1,12.9,0000.0,0007.94,0005.48,0005.23
2022-03-06 02:31:00,,0823.0,5.00,0.00,22.3,21.6,00.0,31.2,24.0,12.8,0000.0,0007.84,0005.43,0005.16
2022-03-06 02:32:00,,0822.9,5.00,0.00,22.3,21.5,00.0,31.2,24.0,12.7,0000.0,0007.76,0005.37,0005.10
2022-03-06 02:33:00,,0822.9,5.00,0.00,22.2,21.5,00.0,31.2,24.0,12.8,0000.0,0007.67,0005.31,0005.05
2022-03-06 02:34:00,,0823.0,5.01,0.00,22.2,21.5,00.0,31.2,24.0,12.8,0000.0,0007.66,0005.29,0005.02
2022-03-06 02:35:00,,0823.0,4.99,0.00,22.2,21.5,00.0,31.2,24.0,13.0,0000.0,0007.68,0005.27,0004.99
2022-03-06 02:36:00,,0823.0,4.99,0.00,22.2,21.5,00.0,31.2,24.0,13.0,0000.6,0007.68,0005.26,0004.98
2022-03-06 02:37:00,,0823.0,5.00,0.00,22.2,21.5,00.0,31.2,24.0,13.0,0001.9,0007.68,0005.24,0004.96
2022-03-06 02:38:00,,0822.9,5.01,0.00,22.2,21.5,00.0,31.2,24.0,13.0,0002.1,0007.68,0005.22,0004.93
2022-03-06 02:39:00,,0823.0,5.01,0.00,22.2,21.5,00.0,31.2,24.0,13.0,0001.6,0007.71,0005.19,0004.89
2022-03-06 02:40:00,,0823.0,5.00,0.00,22.2,21.4,00.0,31.2,23.9,13.0,0001.3,0007.64,0005.17,0004.87
2022-03-06 02:41:00,,0823.0,4.99,0.00,22.1,21.4,00.0,31.2,23.9,13.1,0000.9,0007.66,0005.17,0004.87
2022-03-06 02:42:00,,0823.0,5.00,0.00,22.1,21.3,00.0,31.2,23.9,13.2,0000.4,0007.64,0005.16,0004.88
2022-03-06 02:43:00,,0823.1,5.00,0.00,22.1,21.2,00.0,31.1,23.8,13.2,0000.3,0007.64,0005.17,0004.90
2022-03-06 02:44:00,,0823.1,4.99,0.00,22.1,21.2,00.0,31.1,23.8,13.2,0000.1,0007.68,0005.16,0004.91
2022-03-06 02:45:00,,0823.1,5.00,0.00,22.1,21.6,00.0,31.1,23.9,13.2,0000.3,0008.46,0005.16,0004.92
2022-03-06 02:46:00,,0823.1,5.00,0.00,22.2,22.4,00.0,31.2,24.1,13.2,0000.0,0008.61,0005.20,0004.94
2022-03-06 02:47:00,,0823.1,5.01,0.00,22.3,22.9,00.0,31.2,24.3,13.0,0000.0,0008.65,0005.21,0004.95
2022-03-06 02:48:00,,0823.0,4.99,0.00,22.4,22.7,00.0,31.2,24.4,12.9,0000.0,0009.00,0005.20,0004.94
2022-03-06 02:49:00,,0823.1,5.01,0.00,22.4,22.5,00.0,31.2,24.4,12.9,0000.0,0009.02,0005.21,0004.94
2022-03-06 02:50:00,,0823.0,5.00,0.00,22.4,22.3,00.0,31.3,24.3,12.9,0000.0,0009.01,0005.22,0004.94
2022-03-06 02:51:00,,0823.0,5.00,0.00,22.4,22.1,00.0,31.3,24.2,12.9,0000.0,0009.04,0005.23,0004.95
2022-03-06 02:52:00,,0823.1,5.01,0.00,22.4,22.0,00.0,31.3,24.2,12.8,0000.0,0009.02,0005.22,0004.95
2022-03-06 02:53:00,,0823.0,5.01,0.00,22.3,21.9,00.0,31.3,24.1,12.8,0000.0,0009.00,0005.23,0004.96
2022-03-06 02:54:00,,0823.0,5.00,0.00,22.3,21.8,00.0,31.3,24.1,12.9,0000.0,0009.05,0005.24,0004.95
2022-03-06 02:55:00,,0823.0,5.01,0.00,22.3,21.7,00.0,31.3,24.1,12.9,0000.0,0009.04,0005.27,0004.95
2022-03-06 02:56:00,,0823.0,4.99,0.00,22.3,21.6,00.0,31.2,24.0,12.9,0000.0,0008.29,0005.28,0004.94
2022-03-06 02:57:00,,0823.0,5.00,0.00,22.2,21.5,00.0,31.2,24.0,12.8,0000.0,0008.14,0005.24,0004.90
2022-03-06 02:58:00,,0823.0,5.01,0.00,22.2,21.4,00.0,31.2,23.9,12.8,0000.0,0008.07,0005.22,0004.88
2022-03-06 02:59:00,,0823.0,4.99,0.00,22.2,21.3,00.0,31.2,23.9,12.8,0000.0,0007.65,0005.20,0004.87
